Flag for United Kingdom Weather past 2 weeks in West Bromwich, England, United Kingdom

50 °F

Passing clouds.

Feels Like: 47 °F
Forecast: 43 / 56 °F
Wind: 7 mph from Northeast

Location: Birmingham / Airport

Current Time: Oct 10, 2015 at 12:00:43 PM

Latest Report: Oct 10, 2015 at 11:20 AM

Visibility: 5 mi

Pressure: 30.18 "Hg

Humidity: 94%

Dew point: 48 °F

Location of West BromwichLocation

Historic Weather in West Bromwich — Graph


West Bromwich temperature yesterday

Maximum temperature yesterday: 61 °F (at 12:50 PM)
Minimum temperature yesterday: 41 °F (at 4:20 AM)
Average temperature yesterday: 51 °F

Past Weeks' High & Low Weather Summary

High66 °F (Oct 5, 4:20 PM)100% (Sep 26, 3:20 AM)30.66 "Hg (Sep 26, 3:20 AM)
Low39 °F (Sep 26, 3:50 AM)48% (Sep 25, 1:50 PM)29.36 "Hg (Oct 6, 1:50 PM)
Average54 °F83%30.17 "Hg
* Reported Sep 25 10:20 AM — Oct 10 10:50 AM, West Bromwich, Weather by CustomWeather, © 2015

Note: Actual official high and low records may vary slightly from our data, if they occured in-between our weather recording intervals... More about our weather records


West Bromwich weather history for previous 24 hours

Time TempWeatherWind HumidityBarometerVisibility
10:50 AM
Sat, Oct 10
50 °FPassing clouds.6 mph94%30.18 "Hg6 mi
10:20 AM50 °FScattered clouds.5 mph94%30.18 "Hg4 mi
9:50 AM48 °FPassing clouds.5 mph94%30.18 "Hg4 mi
9:20 AM46 °FClear.5 mph93%30.18 "Hg4 mi
8:50 AM45 °FFog.3 mph100%30.18 "Hg3 mi
8:20 AM45 °FFog.5 mph100%30.18 "Hg3 mi
7:50 AM45 °FFog.3 mph100%30.18 "Hg3 mi
7:20 AM45 °FFog.3 mph93%30.18 "Hg3 mi
6:50 AM45 °FFog.3 mph100%30.18 "Hg3 mi
6:20 AM45 °FFog.5 mph93%30.18 "Hg3 mi
5:50 AM45 °FFog.2 mph93%30.18 "Hg4 mi
5:20 AM45 °FFog.2 mph93%30.18 "Hg4 mi
4:50 AM45 °FFog.No wind93%30.18 "Hg4 mi
4:20 AM45 °FFog.2 mph93%30.18 "Hg4 mi
3:50 AM43 °FFog.No wind100%30.18 "Hg4 mi
3:20 AM43 °FFog.No wind93%30.18 "Hg4 mi
2:50 AM45 °FFog.No wind93%30.18 "Hg5 mi
2:20 AM45 °FFog.No wind93%30.18 "Hg5 mi
1:50 AM45 °FClear.No wind93%30.18 "Hg5 mi
1:20 AM45 °FClear.No wind93%30.21 "Hg10 mi
12:50 AM46 °FClear.2 mph93%30.21 "Hg10 mi
12:20 AM46 °FClear.3 mph93%30.21 "Hg10 mi
11:50 PM
Fri, Oct 9
45 °FClear.2 mph93%30.21 "Hg10 mi
11:20 PM46 °FClear.No wind93%30.21 "Hg10 mi
10:20 PM48 °FClear.No wind87%30.21 "Hg10 mi
9:50 PM50 °FPassing clouds.6 mph82%30.21 "HgN/A
9:20 PM46 °FClear.2 mph93%30.18 "Hg10 mi
8:50 PM50 °FClear.No wind82%30.18 "Hg10 mi
8:20 PM52 °FClear.2 mph77%30.18 "Hg10 mi
7:50 PM52 °FClear.2 mph82%30.18 "Hg10 mi
7:20 PM52 °FSunny.3 mph82%30.18 "Hg10 mi
6:50 PM54 °FSunny.3 mph77%30.18 "Hg10 mi
6:20 PM55 °FSunny.3 mph72%30.18 "Hg10 mi
5:50 PM57 °FSunny.5 mph67%30.18 "Hg10 mi
5:20 PM59 °FPassing clouds.7 mph63%30.18 "HgN/A
4:50 PM61 °FSunny.3 mph59%30.18 "Hg10 mi
4:20 PM61 °FPassing clouds.5 mph59%30.18 "HgN/A
3:20 PM59 °FPassing clouds.6 mph68%30.18 "HgN/A
2:50 PM59 °FScattered clouds.7 mph68%30.18 "HgN/A
2:20 PM61 °FScattered clouds.6 mph63%30.18 "HgN/A
1:50 PM59 °FScattered clouds.7 mph68%30.18 "HgN/A
1:20 PM61 °FScattered clouds.7 mph63%30.18 "HgN/A
12:50 PM61 °FScattered clouds.5 mph63%30.21 "HgN/A
12:20 PM59 °FScattered clouds.7 mph72%30.21 "HgN/A
Weather by CustomWeather, © 2015

See weather overviewHow to use our weather pages